Date,Time,Wetness (Wet Dry or Ice),Wind Speed (m/s),Temperature (C),Humidity (%),Pressure (mb),Radiation (W/m^2)
2019-02-05,03:35:00,DRY,4.50,3.10,39.0,775.00,1.1
2019-02-05,03:40:00,DRY,4.83,3.07,39.0,775.00,2.1
2019-02-05,03:45:00,DRY,4.90,3.15,38.5,775.00,1.5
2019-02-05,03:50:00,DRY,4.40,3.17,37.7,775.00,1.1
2019-02-05,03:55:00,DRY,4.70,3.00,38.0,775.00,1.1
2019-02-05,04:00:00,DRY,5.47,3.03,37.7,775.00,1.3
2019-02-05,04:05:00,DRY,5.70,2.95,38.0,775.00,1.1
2019-02-05,04:10:00,DRY,5.80,3.00,38.0,774.67,1.3
2019-02-05,04:15:00,DRY,4.65,2.90,37.5,775.00,1.5
2019-02-05,04:20:00,DRY,4.97,2.87,37.7,775.00,0.9
2019-02-05,04:25:00,DRY,5.50,2.80,37.0,774.50,1.3
2019-02-05,04:30:00,DRY,4.73,2.87,36.0,775.00,1.3
2019-02-05,04:35:00,DRY,5.80,2.95,36.0,775.00,1.2
2019-02-05,04:40:00,DRY,6.13,2.77,35.3,774.67,1.3
2019-02-05,04:45:00,DRY,5.45,2.60,35.0,775.00,1.1
2019-02-05,04:50:00,DRY,5.57,2.67,35.0,774.67,1.9
2019-02-05,04:55:00,DRY,5.25,2.70,34.5,775.00,1.3
2019-02-05,05:00:00,DRY,6.50,2.70,34.0,774.33,1.4
2019-02-05,05:05:00,DRY,5.15,2.70,33.5,775.00,1.1
2019-02-05,05:10:00,DRY,5.53,2.63,33.0,774.67,1.2
2019-02-05,05:15:00,DRY,5.90,2.50,33.5,774.50,2.3
2019-02-05,05:20:00,DRY,6.03,2.60,33.0,774.67,1.4
2019-02-05,05:25:00,DRY,5.15,2.60,32.5,775.00,1.1
2019-02-05,05:30:00,DRY,4.80,2.67,32.0,775.00,1.3
2019-02-05,05:35:00,DRY,5.15,2.50,32.5,775.00,1.0
2019-02-05,05:40:00,DRY,5.23,2.50,32.7,775.00,1.2
2019-02-05,05:45:00,DRY,5.00,2.50,32.5,775.00,1.2
2019-02-05,05:50:00,DRY,4.13,2.40,33.0,775.00,1.2
2019-02-05,05:55:00,DRY,4.10,2.65,32.5,775.00,1.4
2019-02-05,06:00:00,DRY,4.10,3.03,31.7,775.00,1.2
2019-02-05,06:05:00,DRY,4.30,3.05,31.5,775.00,1.1
2019-02-05,06:10:00,DRY,4.17,2.87,32.3,775.00,0.6
2019-02-05,06:15:00,DRY,3.30,2.40,33.0,775.00,1.1
2019-02-05,06:20:00,DRY,3.03,2.60,32.3,775.00,1.5
2019-02-05,06:25:00,DRY,1.10,2.95,26.0,775.00,0.4
2019-02-05,06:30:00,DRY,2.53,4.93,22.0,775.00,1.0
2019-02-05,06:35:00,DRY,2.70,3.80,28.5,775.00,1.9
2019-02-05,06:40:00,DRY,2.50,4.03,27.0,775.00,1.3
2019-02-05,06:45:00,DRY,2.25,3.85,24.0,775.00,0.9
2019-02-05,06:50:00,DRY,3.57,3.50,30.0,775.00,1.9
2019-02-05,06:55:00,DRY,3.50,2.70,32.5,775.00,1.7
2019-02-05,07:00:00,DRY,3.80,2.80,32.7,775.00,1.2
2019-02-05,07:05:00,DRY,2.90,2.70,33.0,775.00,0.9
2019-02-05,07:10:00,DRY,2.50,3.67,24.3,775.00,1.2
2019-02-05,07:15:00,DRY,2.10,5.30,19.0,775.00,1.2
2019-02-05,07:20:00,DRY,2.20,5.33,18.3,775.00,1.2
2019-02-05,07:25:00,DRY,2.05,5.80,17.0,775.00,1.5
2019-02-05,07:30:00,DRY,1.33,6.70,12.3,775.00,1.5
2019-02-05,07:35:00,DRY,1.10,5.85,19.0,775.00,1.4
2019-02-05,07:40:00,DRY,2.03,5.93,18.0,775.00,2.6
2019-02-05,07:45:00,DRY,1.95,6.30,17.0,775.00,3.0
2019-02-05,07:50:00,DRY,1.77,6.30,16.3,775.00,3.8
2019-02-05,07:55:00,DRY,1.40,6.20,16.0,775.00,5.4
2019-02-05,08:00:00,DRY,1.10,5.90,19.7,775.00,8.2
2019-02-05,08:05:00,DRY,1.25,5.50,22.5,775.00,10.6
2019-02-05,08:10:00,DRY,1.53,5.43,22.7,775.00,14.0
2019-02-05,08:15:00,DRY,2.45,5.25,25.0,775.50,16.7
2019-02-05,08:20:00,DRY,2.10,5.20,25.0,775.67,20.2
2019-02-05,08:25:00,DRY,1.45,5.40,25.0,776.00,23.2
2019-02-05,08:30:00,DRY,2.20,4.63,27.0,776.00,53.5
2019-02-05,08:35:00,DRY,2.75,4.15,28.5,776.00,129.7
2019-02-05,08:40:00,DRY,3.50,4.20,30.0,776.00,150.0
2019-02-05,08:45:00,DRY,4.35,4.05,30.5,776.00,169.8
2019-02-05,08:50:00,DRY,4.47,4.37,30.0,776.00,188.9
2019-02-05,08:55:00,DRY,3.45,4.45,30.0,776.00,208.6
2019-02-05,09:00:00,DRY,3.80,4.57,28.0,776.00,227.9
2019-02-05,09:05:00,DRY,3.70,4.85,27.5,776.00,248.7
2019-02-05,09:10:00,DRY,3.87,5.00,26.0,776.00,270.6
2019-02-05,09:15:00,DRY,3.20,5.10,26.0,776.00,292.3
2019-02-05,09:20:00,DRY,4.17,5.27,25.0,776.00,311.9
2019-02-05,09:25:00,DRY,2.70,5.30,24.5,776.00,331.6
2019-02-05,09:30:00,DRY,3.00,5.37,25.0,776.00,352.6
2019-02-05,09:35:00,DRY,3.60,5.70,23.0,776.00,371.5
2019-02-05,09:40:00,DRY,3.63,5.67,23.7,776.00,388.8
2019-02-05,09:45:00,DRY,3.95,5.80,24.0,776.00,408.6
2019-02-05,09:50:00,DRY,3.97,6.07,22.7,776.00,425.6
2019-02-05,09:55:00,DRY,3.10,6.15,23.5,776.00,446.2
2019-02-05,10:00:00,DRY,2.73,6.17,23.7,776.00,464.3
2019-02-05,10:05:00,DRY,3.20,6.55,23.5,776.00,483.2
2019-02-05,10:10:00,DRY,4.53,6.53,23.3,776.00,499.0
2019-02-05,10:15:00,DRY,3.80,6.15,24.5,776.00,514.8
2019-02-05,10:20:00,DRY,3.37,6.37,25.0,776.00,531.7
2019-02-05,10:25:00,DRY,3.25,6.65,25.0,776.00,548.2
2019-02-05,10:30:00,DRY,3.47,6.77,25.7,776.00,563.6
2019-02-05,10:35:00,DRY,2.50,6.95,25.0,776.00,577.6
2019-02-05,10:40:00,DRY,3.03,7.07,24.7,776.00,595.0
2019-02-05,10:45:00,DRY,1.25,7.25,25.0,776.00,609.6
2019-02-05,10:50:00,DRY,3.87,7.20,24.0,776.00,625.9
2019-02-05,10:55:00,DRY,3.55,7.15,24.0,776.00,636.3
2019-02-05,11:00:00,DRY,3.23,7.40,24.7,776.00,646.7
2019-02-05,11:05:00,DRY,2.60,7.35,25.0,776.00,660.1
2019-02-05,11:10:00,DRY,1.97,7.53,25.3,776.00,669.3
2019-02-05,11:15:00,DRY,1.35,7.25,26.0,776.00,678.8
2019-02-05,11:20:00,DRY,1.80,7.43,25.7,776.00,696.0
2019-02-05,11:25:00,DRY,1.30,7.25,26.0,776.00,700.5
2019-02-05,11:30:00,DRY,1.67,7.43,25.3,776.00,711.2
2019-02-05,11:35:00,DRY,1.60,7.20,26.0,776.00,727.2
2019-02-05,11:40:00,DRY,1.47,7.20,27.3,776.00,736.0
2019-02-05,11:45:00,DRY,1.80,7.30,26.5,776.00,747.6
2019-02-05,11:50:00,DRY,1.20,7.50,26.3,776.00,756.7
2019-02-05,11:55:00,DRY,0.90,7.35,27.5,776.00,764.5
2019-02-05,12:00:00,DRY,2.57,7.30,29.0,776.00,773.7
2019-02-05,12:05:00,DRY,1.85,7.00,32.0,776.00,780.6
2019-02-05,12:10:00,DRY,2.20,7.17,27.7,776.00,788.0
2019-02-05,12:15:00,DRY,1.60,7.20,29.0,776.00,788.5
2019-02-05,12:20:00,DRY,1.70,7.70,27.0,776.00,791.3
2019-02-05,12:25:00,DRY,0.95,7.45,27.0,776.00,794.0
2019-02-05,12:30:00,DRY,1.37,7.93,28.7,776.00,802.4
2019-02-05,12:35:00,DRY,2.05,8.25,27.0,776.00,813.0
2019-02-05,12:40:00,DRY,1.97,8.10,27.3,776.00,803.2
2019-02-05,12:45:00,DRY,1.55,7.70,28.5,776.00,818.5
2019-02-05,12:50:00,DRY,1.90,7.80,34.7,776.00,827.8
2019-02-05,12:55:00,DRY,2.20,7.45,41.5,776.00,835.9
2019-02-05,13:00:00,DRY,2.90,6.77,44.7,776.00,832.3
2019-02-05,13:05:00,DRY,2.80,7.15,42.5,776.00,830.8
2019-02-05,13:10:00,DRY,2.10,7.47,38.3,776.00,832.9
2019-02-05,13:15:00,DRY,2.20,6.90,47.0,776.00,831.2
2019-02-05,13:20:00,DRY,2.20,7.00,44.3,776.00,822.2
2019-02-05,13:25:00,DRY,2.35,6.80,47.0,776.00,825.8
2019-02-05,13:30:00,DRY,2.60,6.60,44.0,776.00,832.9
2019-02-05,13:35:00,DRY,1.90,6.50,45.0,776.00,817.1
2019-02-05,13:40:00,DRY,1.87,6.53,49.0,775.33,830.8
2019-02-05,13:45:00,DRY,1.95,6.90,44.5,775.50,813.8
2019-02-05,13:50:00,DRY,2.33,6.80,47.7,775.00,825.6
2019-02-05,13:55:00,DRY,1.10,7.20,48.5,775.00,816.5
2019-02-05,14:00:00,DRY,1.40,7.20,50.0,775.00,808.8
2019-02-05,14:05:00,DRY,1.80,7.45,50.5,775.00,815.8
2019-02-05,14:10:00,DRY,1.50,7.00,48.7,775.00,804.4
2019-02-05,14:15:00,DRY,2.25,6.85,46.0,775.00,797.5
2019-02-05,14:20:00,DRY,2.03,7.00,48.0,775.00,801.7
2019-02-05,14:25:00,DRY,2.45,7.45,46.0,775.00,794.0
2019-02-05,14:30:00,DRY,2.10,7.37,47.7,775.00,786.3
2019-02-05,14:35:00,DRY,0.95,7.45,46.0,775.00,775.9
2019-02-05,14:40:00,DRY,0.93,7.40,47.7,775.00,772.8
2019-02-05,14:45:00,DRY,1.80,6.80,49.5,775.00,761.1
2019-02-05,14:50:00,DRY,1.77,7.40,49.0,775.00,756.2
2019-02-05,14:55:00,DRY,0.70,7.60,51.0,775.00,755.2
2019-02-05,15:00:00,DRY,1.37,8.07,48.0,775.00,745.5
2019-02-05,15:05:00,DRY,1.85,7.90,51.0,775.00,728.0
2019-02-05,15:10:00,DRY,1.60,7.90,51.0,775.00,723.6
2019-02-05,15:15:00,DRY,1.50,7.50,54.5,775.00,710.2
2019-02-05,15:20:00,DRY,1.67,7.60,54.3,775.00,703.5
2019-02-05,15:25:00,DRY,1.45,7.55,56.5,775.00,699.0
2019-02-05,15:30:00,DRY,1.50,8.07,55.0,775.00,689.4
2019-02-05,15:35:00,DRY,2.70,7.95,52.0,775.00,677.6
2019-02-05,15:40:00,DRY,2.47,8.03,52.3,775.00,660.7
2019-02-05,15:45:00,DRY,3.10,8.20,51.5,775.00,650.1
2019-02-05,15:50:00,DRY,2.50,8.30,46.0,775.00,634.9
2019-02-05,15:55:00,DRY,3.00,8.20,51.0,775.00,616.5
2019-02-05,16:00:00,DRY,2.13,7.80,46.0,775.00,605.4
2019-02-05,16:05:00,DRY,3.85,7.60,38.5,775.00,593.6
2019-02-05,16:10:00,DRY,2.87,8.20,34.3,775.00,581.1
2019-02-05,16:15:00,DRY,3.35,8.10,34.0,775.00,564.0
2019-02-05,16:20:00,DRY,1.90,8.40,33.7,775.00,550.7
2019-02-05,16:25:00,DRY,2.75,8.25,30.0,775.00,535.3
2019-02-05,16:30:00,DRY,2.97,7.97,32.3,775.00,519.2
2019-02-05,16:35:00,DRY,3.05,7.95,30.5,775.00,501.4
2019-02-05,16:40:00,DRY,1.60,7.83,30.7,775.00,484.8
2019-02-05,16:45:00,DRY,2.15,8.00,27.0,775.00,469.9
2019-02-05,16:50:00,DRY,1.50,7.90,31.0,775.00,450.8
2019-02-05,16:55:00,DRY,1.80,7.80,32.0,775.00,429.9
2019-02-05,17:00:00,DRY,1.43,7.73,34.7,775.00,412.0
2019-02-05,17:05:00,DRY,1.95,7.60,36.5,775.00,395.0
2019-02-05,17:10:00,DRY,2.03,7.40,37.7,775.00,375.3
2019-02-05,17:15:00,DRY,3.55,7.00,45.5,775.00,347.3
2019-02-05,17:20:00,DRY,2.57,6.83,50.0,775.00,331.1
2019-02-05,17:25:00,DRY,3.60,6.90,39.0,775.00,314.4
2019-02-05,17:30:00,DRY,3.37,6.90,32.0,775.00,295.6
2019-02-05,17:35:00,DRY,4.90,6.80,24.5,775.00,277.3
2019-02-05,17:40:00,DRY,2.80,7.07,20.7,775.00,256.6
2019-02-05,17:45:00,DRY,3.40,7.05,14.0,775.00,237.8
2019-02-05,17:50:00,DRY,3.97,7.10,13.7,775.00,218.7
2019-02-05,17:55:00,DRY,3.35,7.15,14.5,775.00,200.4
2019-02-05,18:00:00,DRY,2.93,7.07,15.0,775.00,180.7
2019-02-05,18:05:00,DRY,2.50,7.10,14.5,775.00,162.5
2019-02-05,18:10:00,DRY,3.07,6.93,14.7,775.00,143.5
2019-02-05,18:15:00,DRY,1.50,6.80,16.5,775.00,119.7
2019-02-05,18:20:00,DRY,3.17,6.77,19.7,775.00,96.2
2019-02-05,18:25:00,DRY,3.25,6.60,18.5,775.00,74.9
2019-02-05,18:30:00,DRY,1.93,6.80,15.3,775.00,55.3
2019-02-05,18:35:00,DRY,3.45,6.70,21.0,775.00,38.4
2019-02-05,18:40:00,DRY,1.30,6.47,17.3,775.00,24.6
2019-02-05,18:45:00,DRY,1.35,6.35,16.5,775.00,17.6
2019-02-05,18:50:00,DRY,0.73,6.50,13.3,775.00,13.1
2019-02-05,18:55:00,DRY,3.20,6.65,13.5,775.00,7.3
2019-02-05,19:00:00,DRY,3.00,6.73,14.0,775.00,4.5
2019-02-05,19:05:00,DRY,3.80,6.70,13.0,775.00,2.1
2019-02-05,19:10:00,DRY,2.73,6.80,12.3,775.00,1.5
2019-02-05,19:15:00,DRY,3.35,6.80,10.5,775.00,1.9
2019-02-05,19:20:00,DRY,2.47,6.77,12.0,775.00,0.7
2019-02-05,19:25:00,DRY,2.70,6.80,11.0,775.00,1.0
2019-02-05,19:30:00,DRY,4.77,6.90,9.3,775.00,1.4
2019-02-05,19:35:00,DRY,2.90,6.95,10.0,775.00,1.5
2019-02-05,19:40:00,DRY,3.67,6.87,10.0,775.00,0.9
2019-02-05,19:45:00,DRY,3.10,6.80,10.0,775.00,0.7
2019-02-05,19:50:00,DRY,2.87,6.90,9.7,775.00,0.9
2019-02-05,19:55:00,DRY,3.05,6.95,9.5,775.00,0.9
2019-02-05,20:00:00,DRY,2.70,6.90,9.0,775.00,1.1
2019-02-05,20:05:00,DRY,4.60,6.90,9.5,775.00,1.6
2019-02-05,20:10:00,DRY,3.37,6.80,9.7,775.00,1.1
2019-02-05,20:15:00,DRY,3.80,6.80,9.0,775.00,0.8
2019-02-05,20:20:00,DRY,4.87,6.80,9.3,775.00,1.1
2019-02-05,20:25:00,DRY,4.45,6.80,8.5,775.00,1.2
2019-02-05,20:30:00,DRY,3.87,6.87,8.3,775.00,0.8
2019-02-05,20:35:00,DRY,3.90,6.90,7.5,775.00,1.5
2019-02-05,20:40:00,DRY,2.63,6.90,7.3,775.00,0.5
2019-02-05,20:45:00,DRY,1.05,6.80,8.0,775.00,2.1
2019-02-05,20:50:00,DRY,3.27,6.73,7.7,775.67,1.1
2019-02-05,20:55:00,DRY,2.95,6.60,9.5,776.00,1.4
2019-02-05,21:00:00,DRY,2.03,6.57,8.7,776.00,1.1
2019-02-05,21:05:00,DRY,2.95,6.60,9.0,776.00,1.6
2019-02-05,21:10:00,DRY,1.63,6.47,9.7,776.00,1.2
2019-02-05,21:15:00,DRY,1.35,6.35,10.0,776.00,1.6
2019-02-05,21:20:00,DRY,3.10,6.30,10.7,776.00,1.4
2019-02-05,21:25:00,DRY,4.10,6.30,10.5,776.00,0.9
2019-02-05,21:30:00,DRY,4.33,6.20,10.7,776.00,0.9
2019-02-05,21:35:00,DRY,5.40,6.25,10.5,776.00,0.8
2019-02-05,21:40:00,DRY,6.97,6.27,9.0,776.00,0.9
2019-02-05,21:45:00,DRY,6.00,6.40,7.5,776.00,1.0
2019-02-05,21:50:00,DRY,7.17,6.50,6.7,776.00,1.0
2019-02-05,21:55:00,DRY,7.20,6.45,6.5,776.00,2.1
2019-02-05,22:00:00,DRY,5.63,6.40,7.0,776.00,0.9
2019-02-05,22:05:00,DRY,6.45,6.40,7.0,776.00,1.3
2019-02-05,22:10:00,DRY,4.53,6.43,6.7,776.00,1.0
2019-02-05,22:15:00,DRY,5.85,6.40,6.5,776.00,1.0
2019-02-05,22:20:00,DRY,6.33,6.33,7.0,776.00,1.1
2019-02-05,22:25:00,DRY,5.90,6.30,7.0,776.00,1.1
2019-02-05,22:30:00,DRY,5.50,6.23,7.0,776.00,0.9
2019-02-05,22:35:00,DRY,7.45,6.20,7.0,776.00,0.9
2019-02-05,22:40:00,DRY,5.43,6.13,7.0,776.00,1.1
2019-02-05,22:45:00,DRY,4.15,6.10,7.0,776.00,1.2
2019-02-05,22:50:00,DRY,6.70,6.00,7.3,776.00,0.8
2019-02-05,22:55:00,DRY,7.15,5.95,7.5,776.00,1.2
2019-02-05,23:00:00,DRY,3.97,5.97,7.0,776.00,1.0
2019-02-05,23:05:00,DRY,3.05,6.00,6.5,776.00,0.9
2019-02-05,23:10:00,DRY,4.13,5.97,7.0,776.00,1.2
2019-02-05,23:15:00,DRY,4.50,5.85,7.0,776.00,1.0
2019-02-05,23:20:00,DRY,4.67,5.87,7.0,776.00,1.1
2019-02-05,23:25:00,DRY,4.05,5.85,6.5,776.00,0.9
2019-02-05,23:30:00,DRY,5.43,5.97,6.3,776.00,1.1
2019-02-05,23:35:00,DRY,6.35,5.95,6.5,776.00,1.1
2019-02-05,23:40:00,DRY,6.50,5.90,6.7,776.00,1.1
2019-02-05,23:45:00,DRY,5.70,5.85,7.0,776.00,1.8
2019-02-05,23:50:00,DRY,5.03,5.90,6.0,776.00,1.2
2019-02-05,23:55:00,DRY,4.65,5.95,6.0,776.00,1.1
2019-02-06,00:00:00,DRY,4.53,5.97,6.0,776.00,1.0
2019-02-06,00:05:00,DRY,3.25,6.00,6.0,776.00,0.8
2019-02-06,00:10:00,DRY,4.37,5.87,6.0,776.00,1.1
2019-02-06,00:15:00,DRY,5.40,5.90,6.0,776.00,1.2
2019-02-06,00:20:00,DRY,3.53,5.67,6.0,776.00,1.7
2019-02-06,00:25:00,DRY,4.75,5.75,6.0,776.00,1.0
2019-02-06,00:30:00,DRY,4.50,5.80,6.0,776.00,1.2
2019-02-06,00:35:00,DRY,4.15,5.90,5.5,776.00,0.8
2019-02-06,00:40:00,DRY,3.83,5.90,5.3,776.00,0.7
2019-02-06,00:45:00,DRY,5.35,5.95,5.0,776.00,0.8
2019-02-06,00:50:00,DRY,4.43,6.10,5.0,776.00,1.2
2019-02-06,00:55:00,DRY,4.00,6.25,5.0,776.00,0.9
2019-02-06,01:00:00,DRY,3.03,6.13,5.0,776.00,1.3
2019-02-06,01:05:00,DRY,3.35,6.00,5.0,776.00,1.4
2019-02-06,01:10:00,DRY,2.70,6.00,5.0,776.00,1.3
2019-02-06,01:15:00,DRY,3.35,6.00,5.0,776.00,0.9
2019-02-06,01:20:00,DRY,3.73,6.07,5.0,776.00,1.1
2019-02-06,01:25:00,DRY,3.75,6.00,5.0,776.00,1.2
2019-02-06,01:30:00,DRY,4.80,6.17,4.7,776.00,1.3
2019-02-06,01:35:00,DRY,4.90,6.10,5.0,776.00,1.5
2019-02-06,01:40:00,DRY,4.70,6.17,5.0,776.00,0.8
2019-02-06,01:45:00,DRY,4.55,6.05,5.0,776.00,1.5
2019-02-06,01:50:00,DRY,3.73,6.10,5.0,776.00,1.3
2019-02-06,01:55:00,DRY,2.70,6.10,4.5,776.00,1.0
2019-02-06,02:00:00,DRY,3.13,6.10,4.3,776.00,0.9
2019-02-06,02:05:00,DRY,3.70,5.95,5.0,776.00,1.2
2019-02-06,02:10:00,DRY,3.00,5.93,4.7,776.00,0.6
2019-02-06,02:15:00,DRY,2.65,5.80,5.0,776.00,1.8
2019-02-06,02:20:00,DRY,2.90,5.73,5.0,776.00,1.4
2019-02-06,02:25:00,DRY,3.15,5.90,4.5,776.00,0.7
2019-02-06,02:30:00,DRY,3.23,6.03,4.3,776.00,0.9
2019-02-06,02:35:00,DRY,3.15,6.10,4.0,776.00,1.1
2019-02-06,02:40:00,DRY,2.30,6.23,4.0,776.00,0.7
2019-02-06,02:45:00,DRY,2.95,6.20,4.0,776.00,1.1
2019-02-06,02:50:00,DRY,3.00,6.10,4.3,776.00,1.0
2019-02-06,02:55:00,DRY,2.45,6.25,4.0,776.00,1.3
2019-02-06,03:00:00,DRY,1.93,6.40,4.0,776.00,1.6
2019-02-06,03:05:00,DRY,2.20,6.25,4.0,776.00,0.8
2019-02-06,03:10:00,DRY,2.33,6.37,4.0,776.00,1.6
2019-02-06,03:15:00,DRY,2.00,6.45,4.0,776.00,1.0
2019-02-06,03:20:00,DRY,1.43,6.43,4.0,776.00,1.6
2019-02-06,03:25:00,DRY,1.15,6.45,4.0,776.00,1.4
2019-02-06,03:30:00,DRY,1.93,6.70,4.0,776.00,1.6
2019-02-06,03:35:00,DRY,2.50,6.50,4.0,776.00,1.2
2019-02-06,03:40:00,DRY,1.43,6.43,4.0,776.00,1.1
2019-02-06,03:45:00,DRY,2.40,6.45,4.0,776.00,0.6
2019-02-06,03:50:00,DRY,1.53,6.57,4.0,775.00,1.2
2019-02-06,03:55:00,DRY,2.60,7.00,4.0,775.50,1.1
2019-02-06,04:00:00,DRY,2.20,7.27,4.0,775.33,0.6
2019-02-06,04:05:00,DRY,2.55,6.70,4.0,775.00,0.9
2019-02-06,04:10:00,DRY,1.40,6.43,4.0,775.00,2.0
2019-02-06,04:15:00,DRY,1.35,6.40,4.0,775.00,0.6
2019-02-06,04:20:00,DRY,1.77,6.33,4.0,775.00,0.8
2019-02-06,04:25:00,DRY,2.10,6.15,4.0,775.00,1.6
2019-02-06,04:30:00,DRY,1.87,6.07,4.0,775.00,0.9
2019-02-06,04:35:00,DRY,1.70,6.05,4.0,775.00,0.7
2019-02-06,04:40:00,DRY,1.33,5.97,4.0,775.00,1.0
2019-02-06,04:45:00,DRY,1.00,5.95,4.5,775.00,1.4
2019-02-06,04:50:00,DRY,1.13,5.97,4.0,775.00,1.1
2019-02-06,04:55:00,DRY,1.55,6.15,4.0,775.00,0.3
2019-02-06,05:00:00,DRY,1.73,5.97,4.0,775.00,1.5
2019-02-06,05:05:00,DRY,2.30,5.75,4.0,775.00,0.7
2019-02-06,05:10:00,DRY,2.53,5.67,4.0,775.00,1.5
2019-02-06,05:15:00,DRY,2.60,5.60,4.0,775.00,0.8
2019-02-06,05:20:00,DRY,2.53,5.43,4.3,775.00,0.9
2019-02-06,05:25:00,DRY,2.50,5.55,4.5,775.00,0.8
2019-02-06,05:30:00,DRY,2.50,5.57,4.0,775.00,2.4
2019-02-06,05:35:00,DRY,2.90,5.55,4.0,775.00,2.1
2019-02-06,05:40:00,DRY,3.03,5.37,4.3,775.00,1.8
2019-02-06,05:45:00,DRY,3.05,5.30,4.5,775.00,1.1
2019-02-06,05:50:00,DRY,2.67,5.53,4.0,775.00,1.4
2019-02-06,05:55:00,DRY,2.05,5.55,4.0,775.00,1.8
2019-02-06,06:00:00,DRY,3.00,5.00,4.7,775.00,1.3
2019-02-06,06:05:00,DRY,3.50,4.50,5.5,775.00,0.9
2019-02-06,06:10:00,DRY,3.10,4.20,5.0,775.00,0.8
2019-02-06,06:15:00,DRY,2.50,4.65,4.5,775.00,1.2
2019-02-06,06:20:00,DRY,2.40,5.43,4.0,775.00,1.2
2019-02-06,06:25:00,DRY,2.00,5.45,4.0,775.00,0.9
2019-02-06,06:30:00,DRY,1.63,5.80,4.0,775.00,1.2
2019-02-06,06:35:00,DRY,1.60,5.70,4.0,775.00,0.1
2019-02-06,06:40:00,DRY,1.97,5.73,4.0,775.00,1.3
2019-02-06,06:45:00,DRY,2.45,5.75,4.0,775.00,1.2
2019-02-06,06:50:00,DRY,1.67,5.80,4.0,775.00,1.2
2019-02-06,06:55:00,DRY,1.25,5.55,4.0,775.00,0.3
2019-02-06,07:00:00,DRY,1.73,5.63,4.0,775.00,0.8
2019-02-06,07:05:00,DRY,1.90,5.75,4.0,775.00,1.2
2019-02-06,07:10:00,DRY,2.27,5.67,5.0,775.00,1.5
2019-02-06,07:15:00,DRY,1.65,5.70,5.0,775.00,0.6
2019-02-06,07:20:00,DRY,2.37,5.60,5.0,775.33,0.7
2019-02-06,07:25:00,DRY,2.05,5.70,5.0,775.00,1.4
2019-02-06,07:30:00,DRY,2.13,5.63,5.0,775.00,1.9
2019-02-06,07:35:00,DRY,2.85,5.70,5.0,775.00,1.9
2019-02-06,07:40:00,DRY,2.37,5.73,5.3,775.67,2.0
2019-02-06,07:45:00,DRY,2.20,5.20,6.0,775.50,1.2
2019-02-06,07:50:00,DRY,2.97,5.17,6.3,776.00,4.0
2019-02-06,07:55:00,DRY,1.40,5.00,6.0,776.00,6.3
2019-02-06,08:00:00,DRY,1.70,5.10,6.0,776.00,8.4
2019-02-06,08:05:00,DRY,3.15,5.05,6.0,776.00,9.9
2019-02-06,08:10:00,DRY,3.20,5.23,6.0,776.00,13.6
2019-02-06,08:15:00,DRY,3.40,5.50,5.0,776.00,15.0
2019-02-06,08:20:00,DRY,2.73,5.63,5.7,776.00,18.3
2019-02-06,08:25:00,DRY,2.60,5.55,6.0,776.00,19.4
2019-02-06,08:30:00,DRY,2.83,5.63,6.0,776.00,73.4
2019-02-06,08:35:00,DRY,1.30,5.80,6.0,776.00,146.1
2019-02-06,08:40:00,DRY,2.00,6.03,5.7,776.00,164.6
2019-02-06,08:45:00,DRY,3.05,6.15,5.5,776.00,184.1
2019-02-06,08:50:00,DRY,3.33,6.10,6.0,776.00,203.8
2019-02-06,08:55:00,DRY,3.35,6.00,6.0,776.00,224.3
2019-02-06,09:00:00,DRY,3.00,6.37,5.7,776.00,244.2
2019-02-06,09:05:00,DRY,3.10,6.55,5.5,776.00,265.6
2019-02-06,09:10:00,DRY,3.13,6.67,5.3,776.00,284.7
2019-02-06,09:15:00,DRY,3.75,6.60,6.0,776.00,305.1
2019-02-06,09:20:00,DRY,2.93,6.63,6.3,776.00,323.8
2019-02-06,09:25:00,DRY,2.65,6.70,6.0,776.00,342.9
2019-02-06,09:30:00,DRY,3.50,6.73,6.3,776.00,363.2
2019-02-06,09:35:00,DRY,2.55,6.80,6.5,776.00,383.5
2019-02-06,09:40:00,DRY,3.43,6.77,6.3,776.00,401.8
2019-02-06,09:45:00,DRY,3.50,6.80,6.5,776.00,420.3
2019-02-06,09:50:00,DRY,3.17,6.87,7.0,776.00,438.8
2019-02-06,09:55:00,DRY,2.85,6.95,7.5,776.00,457.3
2019-02-06,10:00:00,DRY,3.13,6.83,7.7,776.00,475.2
2019-02-06,10:05:00,DRY,3.60,6.95,7.0,776.00,493.2
2019-02-06,10:10:00,DRY,3.70,7.13,7.3,776.00,509.7
2019-02-06,10:15:00,DRY,2.40,7.15,7.5,776.00,528.2
2019-02-06,10:20:00,DRY,3.37,7.13,7.0,776.00,543.7
2019-02-06,10:25:00,DRY,3.95,7.20,7.0,776.00,559.1
2019-02-06,10:30:00,DRY,3.77,7.27,7.0,776.00,575.8
2019-02-06,10:35:00,DRY,4.40,7.40,7.5,776.00,590.2
2019-02-06,10:40:00,DRY,3.50,7.53,7.7,776.00,606.5
2019-02-06,10:45:00,DRY,3.20,7.80,7.5,776.00,620.0
2019-02-06,10:50:00,DRY,3.67,7.90,7.7,776.67,634.1
2019-02-06,10:55:00,DRY,3.20,8.15,8.0,777.00,648.3
2019-02-06,11:00:00,DRY,2.47,8.17,7.7,777.00,662.3
2019-02-06,11:05:00,DRY,2.70,8.25,7.5,777.00,674.8
2019-02-06,11:10:00,DRY,3.47,8.13,7.3,777.00,687.6
2019-02-06,11:15:00,DRY,2.80,8.15,8.0,777.00,700.1
2019-02-06,11:20:00,DRY,2.77,8.30,7.7,777.00,712.0
2019-02-06,11:25:00,DRY,3.45,8.15,7.0,777.00,723.5
2019-02-06,11:30:00,DRY,3.03,8.20,7.7,777.00,734.5
2019-02-06,11:35:00,DRY,2.30,8.45,7.5,777.00,743.9
2019-02-06,11:40:00,DRY,2.47,8.50,7.0,777.00,753.3
2019-02-06,11:45:00,DRY,3.15,8.30,7.0,777.00,762.5
2019-02-06,11:50:00,DRY,2.80,8.40,7.3,777.00,772.3
2019-02-06,11:55:00,DRY,1.80,8.45,7.0,777.00,781.0
2019-02-06,12:00:00,DRY,3.20,8.57,6.3,777.00,789.0
2019-02-06,12:05:00,DRY,1.75,8.60,8.5,776.50,797.2
2019-02-06,12:10:00,DRY,2.13,8.57,8.7,776.33,803.7
2019-02-06,12:15:00,DRY,1.55,8.80,14.0,776.00,812.0
2019-02-06,12:20:00,DRY,1.17,9.23,14.7,776.33,816.0
2019-02-06,12:25:00,DRY,1.10,9.30,15.0,776.00,822.8
2019-02-06,12:30:00,DRY,1.90,9.37,18.0,776.00,828.9
2019-02-06,12:35:00,DRY,1.95,9.55,16.5,776.00,833.5
2019-02-06,12:40:00,DRY,1.60,9.33,18.0,776.00,837.4
2019-02-06,12:45:00,DRY,1.20,9.25,18.5,776.00,841.5
2019-02-06,12:50:00,DRY,2.00,8.90,19.3,776.00,845.0
2019-02-06,12:55:00,DRY,1.60,9.55,20.5,776.00,848.8
2019-02-06,13:00:00,DRY,1.27,9.33,21.7,776.00,849.3
2019-02-06,13:05:00,DRY,0.65,9.35,23.0,776.00,851.9
2019-02-06,13:10:00,DRY,1.47,9.30,24.0,776.00,852.9
2019-02-06,13:15:00,DRY,1.85,9.15,25.5,776.00,854.2
2019-02-06,13:20:00,DRY,1.17,8.73,27.0,776.00,853.3
2019-02-06,13:25:00,DRY,0.85,9.00,28.0,776.00,857.9
2019-02-06,13:30:00,DRY,1.30,9.10,28.0,776.00,851.9
2019-02-06,13:35:00,DRY,0.70,8.50,32.0,776.00,849.7
2019-02-06,13:40:00,DRY,1.43,8.70,32.0,776.00,850.3
2019-02-06,13:45:00,DRY,1.80,9.00,31.5,776.00,847.4
2019-02-06,13:50:00,DRY,1.53,8.87,31.3,776.00,845.0
2019-02-06,13:55:00,DRY,2.45,8.05,34.5,776.00,841.7
2019-02-06,14:00:00,DRY,3.83,7.73,35.3,776.00,837.2
2019-02-06,14:05:00,DRY,4.60,7.75,34.5,776.00,835.0
2019-02-06,14:10:00,DRY,4.07,7.47,37.3,776.00,830.5
2019-02-06,14:15:00,DRY,5.15,7.35,38.0,775.50,825.2
2019-02-06,14:20:00,DRY,4.20,7.20,39.5,776.00,820.0
2019-02-06,14:25:00,DRY,4.75,7.05,40.5,775.50,812.4
2019-02-06,14:30:00,DRY,2.80,7.23,41.7,775.33,807.2
2019-02-06,14:35:00,DRY,3.40,7.35,40.0,776.00,799.1
2019-02-06,14:40:00,DRY,4.17,7.10,41.3,776.00,792.8
2019-02-06,14:45:00,DRY,3.70,7.15,40.0,775.00,784.5
2019-02-06,14:50:00,DRY,2.83,7.20,43.0,775.33,777.2
2019-02-06,14:55:00,DRY,4.30,7.20,42.0,775.50,769.0
2019-02-06,15:00:00,DRY,2.77,7.30,42.0,775.67,760.2
2019-02-06,15:05:00,DRY,2.85,7.40,40.5,775.50,750.1
2019-02-06,15:10:00,DRY,2.27,7.40,41.3,775.33,742.4
2019-02-06,15:15:00,DRY,4.30,7.30,33.0,775.00,731.6
2019-02-06,15:20:00,DRY,2.50,7.27,37.3,775.00,721.8
2019-02-06,15:25:00,DRY,3.60,7.45,37.0,775.00,711.0
2019-02-06,15:30:00,DRY,2.10,7.33,34.7,775.00,698.8
2019-02-06,15:35:00,DRY,3.10,7.10,40.0,775.00,687.4
2019-02-06,15:40:00,DRY,2.40,6.83,39.3,775.00,675.0
2019-02-06,15:45:00,DRY,3.55,6.90,39.0,775.00,663.4
2019-02-06,15:50:00,DRY,2.70,6.93,38.3,775.00,636.1
2019-02-06,15:55:00,DRY,4.05,6.90,36.5,775.00,634.1
2019-02-06,16:00:00,DRY,3.13,6.87,33.0,775.00,617.0
2019-02-06,16:05:00,DRY,5.15,6.80,30.5,775.00,607.2
2019-02-06,16:10:00,DRY,4.43,7.07,27.0,775.00,593.3
2019-02-06,16:15:00,DRY,4.40,7.05,25.0,775.00,576.9
2019-02-06,16:20:00,DRY,3.60,7.00,24.3,775.00,560.6
2019-02-06,16:25:00,DRY,3.90,7.10,24.0,775.00,544.6
2019-02-06,16:30:00,DRY,3.40,7.03,20.0,775.00,528.9
2019-02-06,16:35:00,DRY,3.65,7.10,22.5,775.00,511.2
2019-02-06,16:40:00,DRY,3.30,7.10,24.7,775.00,493.6
2019-02-06,16:45:00,DRY,4.30,7.00,26.0,775.00,475.7
2019-02-06,16:50:00,DRY,3.57,6.70,26.0,775.00,457.0
2019-02-06,16:55:00,DRY,2.30,6.85,22.0,775.00,438.6
2019-02-06,17:00:00,DRY,3.53,6.83,18.3,775.00,420.7
2019-02-06,17:05:00,DRY,3.85,7.00,15.0,775.00,402.4
2019-02-06,17:10:00,DRY,2.53,6.90,16.0,775.00,382.3
2019-02-06,17:15:00,DRY,4.75,6.60,14.0,775.00,364.1
2019-02-06,17:20:00,DRY,3.77,6.63,12.3,775.00,343.2
2019-02-06,17:25:00,DRY,4.65,6.55,11.5,775.00,324.4
2019-02-06,17:30:00,DRY,3.40,6.50,8.3,775.00,304.7
2019-02-06,17:35:00,DRY,4.60,6.30,9.5,775.00,284.4
2019-02-06,17:40:00,DRY,4.30,6.23,9.7,775.00,263.8
2019-02-06,17:45:00,DRY,5.05,6.25,8.0,775.00,244.2
2019-02-06,17:50:00,DRY,3.60,6.27,8.0,775.00,225.8
2019-02-06,17:55:00,DRY,3.35,6.45,8.0,775.00,206.2
2019-02-06,18:00:00,DRY,3.17,6.27,10.7,775.00,187.0
2019-02-06,18:05:00,DRY,3.85,6.20,12.5,775.00,168.8
2019-02-06,18:10:00,DRY,5.17,6.07,12.3,775.00,151.3
2019-02-06,18:15:00,DRY,3.20,6.00,12.5,775.00,130.0
2019-02-06,18:20:00,DRY,4.30,5.93,12.0,775.00,103.3
2019-02-06,18:25:00,DRY,4.65,5.90,11.5,775.00,79.8
2019-02-06,18:30:00,DRY,3.47,5.83,11.3,775.00,59.3
2019-02-06,18:35:00,DRY,4.65,5.85,10.5,775.00,41.9
2019-02-06,18:40:00,DRY,3.43,5.70,9.3,775.00,28.0
2019-02-06,18:45:00,DRY,5.45,5.65,10.0,775.00,17.7